DAL1063 KATL-KMDW

Flight info

Callsign DAL1063
Flight time 1h 24m
Altitude 30000
Route VARNM2 RESPE IIU DROSE FISSK7
Aircraft A319/M-SDE3FGHIRWY/LB1

Departure

Time 2026-05-05 13:25
Airport Hartsfield Jackson Atlanta International Airport (KATL)

Arrival

Time 2026-05-05 14:49
Airport Chicago Midway International Airport (KMDW)
Time Latitude Longitude Altitude Speed Heading
2026-05-05 13:13 33.64343 -84.43878 1026 ft 0 kts 270°
2026-05-05 13:16 33.64343 -84.43864 1035 ft 4 kts 263°
2026-05-05 13:16 33.64345 -84.43832 1035 ft 4 kts 275°
2026-05-05 13:16 33.64339 -84.43803 1035 ft 4 kts 308°
2026-05-05 13:17 33.64322 -84.43789 1035 ft 1 kts 359°
2026-05-05 13:17 33.64321 -84.43789 1035 ft 0 kts 359°
2026-05-05 13:19 33.64323 -84.43789 1035 ft 0 kts 359°
2026-05-05 13:19 33.64335 -84.43788 1035 ft 4 kts
2026-05-05 13:19 33.64375 -84.43788 1035 ft 9 kts
2026-05-05 13:19 33.64437 -84.43752 1035 ft 12 kts 49°
2026-05-05 13:20 33.64459 -84.43651 1036 ft 14 kts 90°
2026-05-05 13:20 33.64460 -84.43521 1036 ft 17 kts 91°
2026-05-05 13:20 33.64456 -84.43369 1036 ft 20 kts 91°
2026-05-05 13:20 33.64459 -84.43196 1036 ft 22 kts 90°
2026-05-05 13:21 33.64460 -84.43005 1036 ft 23 kts 90°
2026-05-05 13:21 33.64461 -84.42802 1035 ft 25 kts 87°
2026-05-05 13:21 33.64469 -84.42580 1035 ft 28 kts 90°
2026-05-05 13:21 33.64470 -84.42358 1035 ft 24 kts 90°
2026-05-05 13:22 33.64519 -84.42162 1035 ft 26 kts 59°
2026-05-05 13:22 33.64543 -84.41941 1035 ft 28 kts 90°
2026-05-05 13:22 33.64543 -84.41695 1036 ft 30 kts 90°
2026-05-05 13:22 33.64543 -84.41432 1036 ft 33 kts 90°
2026-05-05 13:23 33.64543 -84.41154 1036 ft 29 kts 90°
2026-05-05 13:23 33.64543 -84.40975 1035 ft 21 kts 90°
2026-05-05 13:23 33.64552 -84.40830 1035 ft 14 kts 58°
2026-05-05 13:23 33.64647 -84.40810 1034 ft 9 kts 357°
2026-05-05 13:24 33.64679 -84.40851 1035 ft 8 kts 275°
2026-05-05 13:24 33.64678 -84.40966 1036 ft 36 kts 270°
2026-05-05 13:24 33.64679 -84.41559 1037 ft 103 kts 270°
2026-05-05 13:24 33.64678 -84.42647 1035 ft 155 kts 270°
2026-05-05 13:25 33.64674 -84.43979 1519 ft 157 kts 268°
2026-05-05 13:25 33.64676 -84.45282 2140 ft 156 kts 268°
2026-05-05 13:25 33.64933 -84.46570 2678 ft 163 kts 292°
2026-05-05 13:25 33.65529 -84.47824 3003 ft 185 kts 293°
2026-05-05 13:26 33.66124 -84.49295 3310 ft 206 kts 289°
2026-05-05 13:26 33.66717 -84.50969 3662 ft 230 kts 288°
2026-05-05 13:26 33.67370 -84.52842 4067 ft 255 kts 289°
2026-05-05 13:26 33.68084 -84.54851 4754 ft 266 kts 290°
2026-05-05 13:27 33.68947 -84.56836 5582 ft 275 kts 307°
2026-05-05 13:27 33.70537 -84.58152 6407 ft 287 kts 341°
2026-05-05 13:27 33.72523 -84.58505 7260 ft 290 kts 356°
2026-05-05 13:27 33.74553 -84.58512 8116 ft 293 kts
2026-05-05 13:28 33.76600 -84.58398 8982 ft 296 kts
2026-05-05 13:28 33.78666 -84.58261 9833 ft 299 kts
2026-05-05 13:28 33.80757 -84.58148 10594 ft 302 kts
2026-05-05 13:28 33.82862 -84.58081 11090 ft 316 kts 359°
2026-05-05 13:29 33.85141 -84.58071 11281 ft 339 kts 358°
2026-05-05 13:29 33.87559 -84.58123 11666 ft 353 kts 356°
2026-05-05 13:29 33.90035 -84.58209 12318 ft 358 kts 356°
2026-05-05 13:29 33.92539 -84.58306 13038 ft 361 kts 356°
2026-05-05 13:30 33.95059 -84.58404 13766 ft 364 kts 356°
2026-05-05 13:30 33.97606 -84.58497 14411 ft 367 kts 356°
2026-05-05 13:30 34.00151 -84.58583 15055 ft 369 kts 356°
2026-05-05 13:30 34.02735 -84.58661 15715 ft 371 kts 355°
2026-05-05 13:31 34.05320 -84.58740 16361 ft 373 kts 355°
2026-05-05 13:31 34.07922 -84.58821 17007 ft 374 kts 355°
2026-05-05 13:31 34.10536 -84.58898 17656 ft 377 kts 355°
2026-05-05 13:31 34.13167 -84.58972 18280 ft 379 kts 355°
2026-05-05 13:32 34.15814 -84.59046 18830 ft 382 kts 355°
2026-05-05 13:32 34.18479 -84.59125 19369 ft 384 kts 354°
2026-05-05 13:32 34.21154 -84.59207 19923 ft 386 kts 354°
2026-05-05 13:32 34.23845 -84.59290 20482 ft 388 kts 354°
2026-05-05 13:33 34.26551 -84.59372 21025 ft 390 kts 354°
2026-05-05 13:33 34.29245 -84.59640 21554 ft 388 kts 346°
2026-05-05 13:33 34.31893 -84.60275 22068 ft 389 kts 344°
2026-05-05 13:33 34.34516 -84.60922 22557 ft 391 kts 344°
2026-05-05 13:34 34.37191 -84.61584 23048 ft 394 kts 344°
2026-05-05 13:34 34.39882 -84.62248 23506 ft 397 kts 344°
2026-05-05 13:34 34.42598 -84.62915 23917 ft 399 kts 344°
2026-05-05 13:34 34.45321 -84.63583 24341 ft 400 kts 344°
2026-05-05 13:35 34.48048 -84.64254 24757 ft 400 kts 343°
2026-05-05 13:35 34.50774 -84.64926 25193 ft 400 kts 343°
2026-05-05 13:35 34.53500 -84.65598 25621 ft 400 kts 343°
2026-05-05 13:35 34.56228 -84.66275 26043 ft 400 kts 343°
2026-05-05 13:36 34.58956 -84.66955 26435 ft 400 kts 343°
2026-05-05 13:36 34.61685 -84.67634 26880 ft 400 kts 342°
2026-05-05 13:36 34.64424 -84.68310 27276 ft 402 kts 342°
2026-05-05 13:36 34.67170 -84.68987 27641 ft 404 kts 342°
2026-05-05 13:37 34.69930 -84.69666 28020 ft 405 kts 342°
2026-05-05 13:37 34.72696 -84.70347 28392 ft 405 kts 342°
2026-05-05 13:37 34.75466 -84.71032 28737 ft 406 kts 342°
2026-05-05 13:37 34.78240 -84.71719 29106 ft 407 kts 342°
2026-05-05 13:38 34.81021 -84.72406 29467 ft 408 kts 342°
2026-05-05 13:38 34.83807 -84.73096 29803 ft 409 kts 342°
2026-05-05 13:38 34.86603 -84.73790 30037 ft 409 kts 342°
2026-05-05 13:38 34.89362 -84.74473 30085 ft 400 kts 342°
2026-05-05 13:39 34.94763 -84.75814 30063 ft 395 kts 341°
2026-05-05 13:39 35.00106 -84.77154 30056 ft 394 kts 341°
2026-05-05 13:40 35.05483 -84.78496 30044 ft 394 kts 341°
2026-05-05 13:40 35.10864 -84.79842 30042 ft 394 kts 341°
2026-05-05 13:41 35.16246 -84.81185 30064 ft 394 kts 342°
2026-05-05 13:41 35.21628 -84.82537 30048 ft 395 kts 341°
2026-05-05 13:42 35.27021 -84.83896 30040 ft 395 kts 341°
2026-05-05 13:42 35.32416 -84.85257 30035 ft 396 kts 341°
2026-05-05 13:43 35.37774 -84.86606 30034 ft 396 kts 341°
2026-05-05 13:43 35.43175 -84.87964 30042 ft 396 kts 342°
2026-05-05 13:44 35.48588 -84.89330 30031 ft 397 kts 342°
2026-05-05 13:44 35.53087 -84.90467 30034 ft 397 kts 342°
2026-05-05 13:45 35.58498 -84.91835 30019 ft 397 kts 341°
2026-05-05 13:45 35.63918 -84.93212 30017 ft 397 kts 341°
2026-05-05 13:46 35.69336 -84.94588 30021 ft 398 kts 341°
2026-05-05 13:46 35.74776 -84.95965 30011 ft 399 kts 342°
2026-05-05 13:47 35.80221 -84.97347 30005 ft 399 kts 341°
2026-05-05 13:47 35.85673 -84.98734 29999 ft 400 kts 341°
2026-05-05 13:48 35.91116 -85.00117 30041 ft 400 kts 341°
2026-05-05 13:48 35.96561 -85.01510 30042 ft 400 kts 341°
2026-05-05 13:49 36.02004 -85.02909 30043 ft 400 kts 341°
2026-05-05 13:49 36.07426 -85.04296 30039 ft 400 kts 341°
2026-05-05 13:50 36.12915 -85.05705 30026 ft 401 kts 341°
2026-05-05 13:50 36.18353 -85.07101 30024 ft 403 kts 341°
2026-05-05 13:51 36.23851 -85.08515 29995 ft 405 kts 341°
2026-05-05 13:51 36.29381 -85.09942 29979 ft 407 kts 341°
2026-05-05 13:52 36.34931 -85.11377 29982 ft 408 kts 341°
2026-05-05 13:52 36.40490 -85.12807 30003 ft 408 kts 341°
2026-05-05 13:53 36.46066 -85.14248 29966 ft 410 kts 341°
2026-05-05 13:53 36.51630 -85.15694 29966 ft 412 kts 341°
2026-05-05 13:54 36.57241 -85.17149 29980 ft 413 kts 341°
2026-05-05 13:54 36.62872 -85.18607 29974 ft 413 kts 341°
2026-05-05 13:55 36.68499 -85.20070 29998 ft 413 kts 341°
2026-05-05 13:55 36.74119 -85.21537 30001 ft 412 kts 341°
2026-05-05 13:56 36.79728 -85.23006 30003 ft 411 kts 341°
2026-05-05 13:56 36.85328 -85.24477 29988 ft 411 kts 341°
2026-05-05 13:57 36.90927 -85.25939 30000 ft 410 kts 341°
2026-05-05 13:57 36.96514 -85.27401 29991 ft 410 kts 341°
2026-05-05 13:58 37.02049 -85.28856 29984 ft 409 kts 341°
2026-05-05 13:58 37.07619 -85.30318 29969 ft 408 kts 341°
2026-05-05 13:59 37.15959 -85.32514 29971 ft 408 kts 341°
2026-05-05 14:00 37.24319 -85.34724 29940 ft 410 kts 342°
2026-05-05 14:00 37.29903 -85.36198 29937 ft 410 kts 341°
2026-05-05 14:01 37.35496 -85.37681 29928 ft 411 kts 341°
2026-05-05 14:01 37.41060 -85.39160 29942 ft 412 kts 342°
2026-05-05 14:02 37.46678 -85.40657 29918 ft 414 kts 342°
2026-05-05 14:02 37.52323 -85.42162 29913 ft 415 kts 342°
2026-05-05 14:03 37.57980 -85.43669 29910 ft 415 kts 341°
2026-05-05 14:03 37.63644 -85.45178 29929 ft 415 kts 342°
2026-05-05 14:04 37.69307 -85.46691 29914 ft 416 kts 342°
2026-05-05 14:04 37.74970 -85.48216 29911 ft 416 kts 342°
2026-05-05 14:05 37.80637 -85.49736 29911 ft 417 kts 342°
2026-05-05 14:05 37.86282 -85.51251 29912 ft 417 kts 342°
2026-05-05 14:06 37.91953 -85.52777 29938 ft 417 kts 342°
2026-05-05 14:06 37.97638 -85.54309 29918 ft 417 kts 342°
2026-05-05 14:07 38.03317 -85.55842 29910 ft 417 kts 342°
2026-05-05 14:07 38.08986 -85.57372 29906 ft 417 kts 342°
2026-05-05 14:08 38.14647 -85.58979 29924 ft 410 kts 333°
2026-05-05 14:08 38.19877 -85.61719 29918 ft 408 kts 331°
2026-05-05 14:09 38.25119 -85.64507 29910 ft 408 kts 331°
2026-05-05 14:09 38.30363 -85.67285 29906 ft 408 kts 332°
2026-05-05 14:10 38.35609 -85.70059 29883 ft 408 kts 332°
2026-05-05 14:10 38.40852 -85.72845 29884 ft 408 kts 331°
2026-05-05 14:11 38.46092 -85.75641 29885 ft 408 kts 331°
2026-05-05 14:11 38.51335 -85.78431 29882 ft 408 kts 331°
2026-05-05 14:12 38.56575 -85.81226 29881 ft 408 kts 331°
2026-05-05 14:12 38.61812 -85.84027 29883 ft 409 kts 331°
2026-05-05 14:13 38.67066 -85.86832 29876 ft 409 kts 331°
2026-05-05 14:13 38.72283 -85.89631 29866 ft 409 kts 331°
2026-05-05 14:14 38.77543 -85.92460 29857 ft 410 kts 331°
2026-05-05 14:14 38.82797 -85.95290 29883 ft 410 kts 331°
2026-05-05 14:15 38.88065 -85.98122 29872 ft 411 kts 331°
2026-05-05 14:15 38.93342 -86.00960 29865 ft 411 kts 330°
2026-05-05 14:16 38.98618 -86.03811 29860 ft 411 kts 330°
2026-05-05 14:16 39.03890 -86.06666 29860 ft 411 kts 330°
2026-05-05 14:17 39.09142 -86.09527 29870 ft 412 kts 330°
2026-05-05 14:17 39.14439 -86.12407 29857 ft 413 kts 330°
2026-05-05 14:18 39.19748 -86.15288 29857 ft 414 kts 330°
2026-05-05 14:18 39.25061 -86.18184 29849 ft 414 kts 330°
2026-05-05 14:19 39.30378 -86.21086 29862 ft 415 kts 330°
2026-05-05 14:19 39.35702 -86.23992 29845 ft 415 kts 330°
2026-05-05 14:20 39.40995 -86.26885 29843 ft 417 kts 330°
2026-05-05 14:20 39.46338 -86.29817 29845 ft 418 kts 330°
2026-05-05 14:21 39.49022 -86.31293 29661 ft 419 kts 330°
2026-05-05 14:21 39.51704 -86.32770 29382 ft 419 kts 330°
2026-05-05 14:21 39.54392 -86.34246 29131 ft 421 kts 330°
2026-05-05 14:21 39.57090 -86.35723 28856 ft 420 kts 330°
2026-05-05 14:22 39.59781 -86.37198 28583 ft 419 kts 330°
2026-05-05 14:22 39.62463 -86.38673 28314 ft 418 kts 330°
2026-05-05 14:22 39.65139 -86.40151 28045 ft 416 kts 330°
2026-05-05 14:22 39.67799 -86.41622 27782 ft 415 kts 330°
2026-05-05 14:23 39.70451 -86.43086 27518 ft 413 kts 330°
2026-05-05 14:23 39.73095 -86.44550 27253 ft 412 kts 330°
2026-05-05 14:23 39.75728 -86.46008 27018 ft 411 kts 329°
2026-05-05 14:23 39.78320 -86.47441 26779 ft 410 kts 329°
2026-05-05 14:24 39.80943 -86.48891 26521 ft 408 kts 329°
2026-05-05 14:24 39.83554 -86.50341 26270 ft 407 kts 329°
2026-05-05 14:24 39.86147 -86.51783 26021 ft 406 kts 329°
2026-05-05 14:24 39.88741 -86.53231 25773 ft 404 kts 329°
2026-05-05 14:25 39.91324 -86.54676 25527 ft 403 kts 330°
2026-05-05 14:25 39.93900 -86.56111 25279 ft 402 kts 330°
2026-05-05 14:25 39.96477 -86.57542 25050 ft 401 kts 330°
2026-05-05 14:25 39.99041 -86.58971 24841 ft 400 kts 329°
2026-05-05 14:26 40.01600 -86.60402 24605 ft 400 kts 329°
2026-05-05 14:26 40.04152 -86.61831 24371 ft 399 kts 329°
2026-05-05 14:26 40.06698 -86.63258 24139 ft 398 kts 330°
2026-05-05 14:26 40.09241 -86.64682 23886 ft 397 kts 330°
2026-05-05 14:27 40.11778 -86.66104 23659 ft 396 kts 330°
2026-05-05 14:27 40.14309 -86.67526 23426 ft 395 kts 330°
2026-05-05 14:27 40.16835 -86.68944 23157 ft 394 kts 330°
2026-05-05 14:27 40.19356 -86.70356 22886 ft 393 kts 330°
2026-05-05 14:28 40.21863 -86.71762 22648 ft 390 kts 330°
2026-05-05 14:28 40.24344 -86.73153 22381 ft 387 kts 330°
2026-05-05 14:28 40.26815 -86.74540 22113 ft 385 kts 329°
2026-05-05 14:28 40.29268 -86.75920 21854 ft 383 kts 329°
2026-05-05 14:29 40.31681 -86.77280 21615 ft 382 kts 329°
2026-05-05 14:29 40.34117 -86.78658 21359 ft 380 kts 329°
2026-05-05 14:29 40.36541 -86.80033 21103 ft 379 kts 329°
2026-05-05 14:29 40.38960 -86.81405 20850 ft 378 kts 329°
2026-05-05 14:30 40.41370 -86.82772 20597 ft 377 kts 329°
2026-05-05 14:30 40.43780 -86.84136 20364 ft 375 kts 329°
2026-05-05 14:30 40.46162 -86.85484 20112 ft 372 kts 329°
2026-05-05 14:30 40.48533 -86.86825 19871 ft 370 kts 329°
2026-05-05 14:31 40.50893 -86.88161 19626 ft 369 kts 329°
2026-05-05 14:31 40.53249 -86.89496 19390 ft 368 kts 329°
2026-05-05 14:31 40.55598 -86.90829 19151 ft 367 kts 329°
2026-05-05 14:31 40.57941 -86.92162 18914 ft 366 kts 329°
2026-05-05 14:32 40.60275 -86.93491 18679 ft 365 kts 329°
2026-05-05 14:32 40.62603 -86.94820 18459 ft 364 kts 329°
2026-05-05 14:32 40.64926 -86.96145 18233 ft 364 kts 329°
2026-05-05 14:32 40.67225 -86.97460 17983 ft 368 kts 330°
2026-05-05 14:33 40.69563 -86.98795 17707 ft 364 kts 330°
2026-05-05 14:33 40.71882 -87.00116 17429 ft 361 kts 330°
2026-05-05 14:33 40.74184 -87.01422 17167 ft 359 kts 330°
2026-05-05 14:33 40.76476 -87.02725 16903 ft 358 kts 329°
2026-05-05 14:34 40.78756 -87.04024 16654 ft 357 kts 329°
2026-05-05 14:34 40.81031 -87.05330 16399 ft 355 kts 329°
2026-05-05 14:34 40.83296 -87.06633 16146 ft 354 kts 329°
2026-05-05 14:34 40.85552 -87.07932 15897 ft 353 kts 329°
2026-05-05 14:35 40.87800 -87.09226 15673 ft 352 kts 329°
2026-05-05 14:35 40.89284 -87.10082 15509 ft 350 kts 329°
2026-05-05 14:35 40.91506 -87.11364 15258 ft 348 kts 329°
2026-05-05 14:35 40.93728 -87.12644 15016 ft 347 kts 329°
2026-05-05 14:36 40.95939 -87.13920 14772 ft 346 kts 329°
2026-05-05 14:36 40.98144 -87.15192 14532 ft 345 kts 329°
2026-05-05 14:36 41.00343 -87.16457 14292 ft 344 kts 329°
2026-05-05 14:36 41.02536 -87.17721 14054 ft 343 kts 329°
2026-05-05 14:37 41.05428 -87.19392 13728 ft 342 kts 329°
2026-05-05 14:37 41.06901 -87.20244 13555 ft 341 kts 329°
2026-05-05 14:37 41.09047 -87.21488 13294 ft 340 kts 329°
2026-05-05 14:37 41.11209 -87.22740 13055 ft 338 kts 328°
2026-05-05 14:38 41.13355 -87.23979 12786 ft 335 kts 328°
2026-05-05 14:38 41.15492 -87.25214 12537 ft 334 kts 328°
2026-05-05 14:38 41.17616 -87.26445 12290 ft 332 kts 328°
2026-05-05 14:38 41.19734 -87.27675 12025 ft 331 kts 329°
2026-05-05 14:39 41.21839 -87.28898 11769 ft 330 kts 329°
2026-05-05 14:39 41.23937 -87.30115 11526 ft 328 kts 329°
2026-05-05 14:39 41.26026 -87.31328 11273 ft 327 kts 329°
2026-05-05 14:39 41.28106 -87.32539 11027 ft 326 kts 329°
2026-05-05 14:40 41.30159 -87.33732 10711 ft 320 kts 329°
2026-05-05 14:40 41.32185 -87.34908 10425 ft 313 kts 329°
2026-05-05 14:40 41.34144 -87.36041 10301 ft 301 kts 328°
2026-05-05 14:40 41.36030 -87.37131 10175 ft 290 kts 328°
2026-05-05 14:41 41.37856 -87.38196 9985 ft 283 kts 328°
2026-05-05 14:41 41.39654 -87.39254 9917 ft 283 kts 328°
2026-05-05 14:41 41.41464 -87.40325 9505 ft 285 kts 328°
2026-05-05 14:41 41.43272 -87.41393 9107 ft 284 kts 328°
2026-05-05 14:42 41.45073 -87.42449 8704 ft 282 kts 329°
2026-05-05 14:42 41.46861 -87.43496 8379 ft 278 kts 329°
2026-05-05 14:42 41.48572 -87.44494 8122 ft 268 kts 329°
2026-05-05 14:42 41.50283 -87.45496 7659 ft 269 kts 329°
2026-05-05 14:43 41.52006 -87.46506 7328 ft 267 kts 329°
2026-05-05 14:43 41.53718 -87.47514 6917 ft 269 kts 328°
2026-05-05 14:43 41.55409 -87.48511 6540 ft 270 kts 329°
2026-05-05 14:43 41.57122 -87.49518 6149 ft 268 kts 329°
2026-05-05 14:44 41.58817 -87.50518 5777 ft 265 kts 330°
2026-05-05 14:44 41.60488 -87.51502 5420 ft 261 kts 332°
2026-05-05 14:44 41.62113 -87.52558 5070 ft 257 kts 323°
2026-05-05 14:44 41.63413 -87.54073 5006 ft 240 kts 311°
2026-05-05 14:45 41.64567 -87.55686 4603 ft 240 kts 313°
2026-05-05 14:45 41.65719 -87.57286 4232 ft 237 kts 313°
2026-05-05 14:45 41.66850 -87.58863 3893 ft 231 kts 313°
2026-05-05 14:45 41.67930 -87.60372 3593 ft 219 kts 313°
2026-05-05 14:46 41.68954 -87.61804 3293 ft 207 kts 313°
2026-05-05 14:46 41.69937 -87.63179 3016 ft 203 kts 314°
2026-05-05 14:46 41.70909 -87.64539 2742 ft 199 kts 313°
2026-05-05 14:46 41.71836 -87.65835 2490 ft 187 kts 313°
2026-05-05 14:47 41.72719 -87.67072 2218 ft 182 kts 314°
2026-05-05 14:47 41.73567 -87.68261 1971 ft 176 kts 314°
2026-05-05 14:47 41.74387 -87.69409 1744 ft 162 kts 314°
2026-05-05 14:47 41.75111 -87.70425 1513 ft 143 kts 313°
2026-05-05 14:48 41.75765 -87.71341 1303 ft 134 kts 314°
2026-05-05 14:48 41.76404 -87.72218 1157 ft 130 kts 314°
2026-05-05 14:48 41.77023 -87.73093 982 ft 128 kts 313°
2026-05-05 14:48 41.77633 -87.73965 784 ft 128 kts 311°
2026-05-05 14:49 41.78220 -87.74792 633 ft 110 kts 313°
2026-05-05 14:49 41.78604 -87.75335 627 ft 38 kts 316°
2026-05-05 14:49 41.78681 -87.75438 628 ft 13 kts 314°
2026-05-05 14:49 41.78754 -87.75538 628 ft 17 kts 314°
2026-05-05 14:50 41.78838 -87.75655 629 ft 16 kts 312°
2026-05-05 14:50 41.78919 -87.75753 634 ft 18 kts 333°
2026-05-05 14:50 41.79026 -87.75802 632 ft 8 kts 340°
2026-05-05 14:50 41.79088 -87.75822 629 ft 11 kts 351°
2026-05-05 14:51 41.79124 -87.75766 633 ft 9 kts 76°
2026-05-05 14:51 41.79126 -87.75664 629 ft 13 kts 88°
2026-05-05 14:51 41.79128 -87.75560 629 ft 10 kts 85°
2026-05-05 14:51 41.79131 -87.75455 629 ft 12 kts 92°
2026-05-05 14:52 41.79132 -87.75319 629 ft 16 kts 89°
2026-05-05 14:52 41.79135 -87.75182 634 ft 14 kts 92°
2026-05-05 14:52 41.79136 -87.75065 633 ft 12 kts 89°
2026-05-05 14:52 41.79137 -87.74964 629 ft 10 kts 89°
2026-05-05 14:53 41.79139 -87.74867 634 ft 11 kts 90°
2026-05-05 14:53 41.79141 -87.74751 629 ft 14 kts 88°
2026-05-05 14:53 41.79136 -87.74619 629 ft 14 kts 112°
2026-05-05 14:53 41.79076 -87.74527 630 ft 13 kts 134°
2026-05-05 14:54 41.79011 -87.74437 630 ft 13 kts 136°
2026-05-05 14:54 41.78939 -87.74374 634 ft 9 kts 147°
2026-05-05 14:54 41.78894 -87.74361 634 ft 3 kts 177°
2026-05-05 14:54 41.78881 -87.74359 629 ft 1 kts 176°
2026-05-05 14:55 41.78877 -87.74359 635 ft 0 kts 176°
2026-05-05 14:55 41.78876 -87.74359 635 ft 1 kts 176°
2026-05-05 14:55 41.78873 -87.74358 629 ft 0 kts 176°
2026-05-05 14:55 41.78872 -87.74358 629 ft 0 kts 176°